TOURFACTS.DK  
Stats and Facts from Tour de France.

Tour de France 2018 starts in 254 days
  Riders   Stages   Teams   Summits   Yearly  


 
Search by year

 2017 - St. 21:  14824 starters.
  5131 different riders.
  634 teams.
  2232 stages.
  454 restdays.
  439589.60 km.
  5653 abandonnees.


Top 3
Christopher Froome86:20:55
Rigoberto Uran86:21:49
Romain Bardet86:23:15
Warren Barguil169 pt.
Primoz Roglic80 pt.
Thomas De Gendt64 pt.
Michael Matthews359 pt.
André Greipel234 pt.
Edvald Boasson Hagen220 pt.
Simon Yates86:27:09
Louis Meintjes86:29:15
Emanuel Buchmann86:54:16
Facts from Tour de France 1938
  |   Stages.  |   Stage winners.  |   Days in yellow  |   Average speed.  |   Route.  |   Teams.  |   All riders.  |   Rookies.  |   Withdrawls.  |  

  |   GC.  |   Polka  |   Green  |   White  |   Summits. (In tour)  |   Summits. (Points)  |   Miscellaneous.  |  

Stage 1 on 05 - 07 - 1938
  
Pick a stage:  1 2 3 4a 4b 4c 5 6a 6b 7 8 9 10a 10b 10c 11 12 13 14 15 16 17a 17b 18 19 20a 20b 20c 21
  ParisCaen | Dist: 215.00 km.

Average speed for all riders in stage:  31,885 km./hr.
    Place:Name:Team:Time:Km/h:
GERWilli OberbeckDEUGermany06:38:25  +  00:00:00=32,378 
ITAAldo BiniITAItaly06:38:35  +  00:00:10=32,365 
NEDTheo MiddelkampNLDHolland06:38:35  +  00:00:10=32,365 
4 BELMarcel KintBELBelgium06:38:35  +  00:00:10=32,365 
5 GEROtto WeckerlingDEUGermany06:38:35  +  00:00:10=32,365 
6 BELFrançois NeuvilleBELBelgium06:38:55  +  00:00:30=32,338 
7 FRAAndré LeducqFRACadets06:38:55  +  00:00:30=32,338 
8 NEDGerrit SchulteNLDHolland06:39:03  +  00:00:38=32,327 
9 FRAAntonin MagneFRAFrance06:39:03  +  00:00:38=32,327 
10 ITAGiuseppe MartanoITAItaly06:39:03  +  00:00:38=32,327 
11 ITAGino BartaliITAItaly06:39:03  +  00:00:38=32,327 
12 BELFélicien VervaeckeBELBelgium06:39:03  +  00:00:38=32,327 
13 FRAJean-Marie GoasmatFRAFrance06:39:03  +  00:00:38=32,327 
14 BELRene WalschotBELBelgium06:39:03  +  00:00:38=32,327 
15 LUXJean MajerusLUXLuxembourg06:39:03  +  00:00:38=32,327 
16 FRAMathias ClemensLUXLuxembourg06:39:03  +  00:00:38=32,327 
17 BELSylvère MaesBELBelgium06:39:21  +  00:00:56=32,302 
18 BELAlbertin DisseauxBELBelgium06:39:21  +  00:00:56=32,302 
19 BELÉloi MeulenbergBELBelgium06:39:21  +  00:00:56=32,302 
20 BELEmile Masson jr.BELBelgium06:39:21  +  00:00:56=32,302 
21 BELJules LowieBELBelgium06:39:21  +  00:00:56=32,302 
22 BELEdward VissersBELBelgium06:39:21  +  00:00:56=32,302 
23 BELConstant LauwersBELBelgium06:39:21  +  00:00:56=32,302 
24 ITAGlauco ServadeiITAItaly06:39:21  +  00:00:56=32,302 
25 FRAJules RossiITAItaly06:39:21  +  00:00:56=32,302 
26 ITAMario ViciniITAItaly06:39:21  +  00:00:56=32,302 
27 ITANello TroggiITAItaly06:39:21  +  00:00:56=32,302 
28 GERHerbert HauswaldDEUGermany06:39:21  +  00:00:56=32,302 
29 GERHeinz WenglerDEUGermany06:39:21  +  00:00:56=32,302 
30 GERReinhold WendelDEUGermany06:39:21  +  00:00:56=32,302 
31 GERJosef ArentsDEUGermany06:39:21  +  00:00:56=32,302 
32 GERPaul LanghoffDEUGermany06:39:21  +  00:00:56=32,302 
33 GERKarl HeideDEUGermany06:39:21  +  00:00:56=32,302 
34 FRAPierre GallienFRAFrance06:39:21  +  00:00:56=32,302 
35 FRAAuguste MalletFRAFrance06:39:21  +  00:00:56=32,302 
36 FRAGeorges SpeicherFRAFrance06:39:21  +  00:00:56=32,302 
37 ESPMariano CañardoESPSpain06:39:21  +  00:00:56=32,302 
38 SUIEdgar HehlenCHESwitzerland06:39:21  +  00:00:56=32,302 
39 NEDPiet Van NekNLDHolland06:39:21  +  00:00:56=32,302 
40 LUXFrançois NeuensLUXLuxembourg06:39:21  +  00:00:56=32,302 
41 LUXArsène MerschLUXLuxembourg06:39:21  +  00:00:56=32,302 
42 FRARobert OubronFRACadets06:39:21  +  00:00:56=32,302 
43 FRAYvan MarieFRACadets06:39:21  +  00:00:56=32,302 
44 FRARaymond PassatFRACadets06:39:21  +  00:00:56=32,302 
45 FRALucien Le GuevelFRABluets06:39:21  +  00:00:56=32,302 
46 FRAJoseph GoutorbeFRABluets06:39:21  +  00:00:56=32,302 
47 FRAEloi TassinFRABluets06:39:21  +  00:00:56=32,302 
48 FRAMarcel LaurentFRAFrance06:39:40  +  00:01:15=32,277 
49 FRAVictor CossonFRAFrance06:39:40  +  00:01:15=32,277 
50 FRARobert TanneveauFRACadets06:39:40  +  00:01:15=32,277 
51 GERHermann SchildDEUGermany06:39:47  +  00:01:22=32,267 
52 FRAJean FontenayFRACadets06:39:56  +  00:01:31=32,255 
53 ITAVasco BergamaschiITAItaly06:40:02  +  00:01:37=32,247 
54 FRARené ViettoFRACadets06:40:02  +  00:01:37=32,247 
55 ITAGiordano CotturITAItaly06:40:02  +  00:01:37=32,247 
56 ESPRafael RamosESPSpain06:40:02  +  00:01:37=32,247 
57 GERPaul SeidelDEUGermany06:40:45  +  00:02:20=32,190 
58 SUIPaul EgliCHESwitzerland06:40:45  +  00:02:20=32,190 
59 SUITheo PerretCHESwitzerland06:40:45  +  00:02:20=32,190 
60 FRACamille LeroyFRABluets06:40:45  +  00:02:20=32,190 
61 ITAPierre SpaperiFRABluets06:40:45  +  00:02:20=32,190 
62 FRASylvain MarcaillouFRAFrance06:41:33  +  00:03:08=32,126 
63 SUIRaymond LouviotFRACadets06:41:33  +  00:03:08=32,126 
64 SUIAlbert KnuttiCHESwitzerland06:42:04  +  00:03:39=32,084 
65 GERFritz SchellerDEUGermany06:42:04  +  00:03:39=32,084 
66 FRAPierre ClemensLUXLuxembourg06:42:04  +  00:03:39=32,084 
67 NEDJef DominicusNLDHolland06:42:20  +  00:03:55=32,063 
68 FRAJean FréchautFRAFrance06:42:20  +  00:03:55=32,063 
69 ITADante GianelloFRABluets06:42:20  +  00:03:55=32,063 
70 NEDAntoon Van SchendelNLDHolland06:42:20  +  00:03:55=32,063 
71 ITAOreste BernardoniFRABluets06:43:18  +  00:04:53=31,986 
72 FRARaoul LesueurFRACadets06:43:18  +  00:04:53=31,986 
73 FRAFabien GalateauFRACadets06:45:52  +  00:07:27=31,784 
74 ESPJacques AlzineESPSpain06:45:52  +  00:07:27=31,784 
75 ITALuigi IntrozziITAItaly06:45:52  +  00:07:27=31,784 
76 SUIBruno CariniFRACadets06:46:58  +  00:08:33=31,698 
77 ITASettimo SimoniniITAItaly06:46:58  +  00:08:33=31,698 
78 FRASauveur DucazeauxFRACadets06:48:51  +  00:10:26=31,552 
79 FRAGeorges NaisseFRAFrance06:50:16  +  00:11:51=31,443 
80 SUIBruno BesanaCHESwitzerland06:50:16  +  00:11:51=31,443 
81 ITAEnrico MolloITAItaly06:50:16  +  00:11:51=31,443 
82 FRALucien LamureFRABluets06:50:16  +  00:11:51=31,443 
83 FRAAlbert BourlonFRABluets06:56:45  +  00:18:20=30,954 
84 ESPJulián BerrenderoESPSpain06:56:45  +  00:18:20=30,954 
85 BELRené PédroliCHESwitzerland06:56:45  +  00:18:20=30,954 
86 FRAAndre LeforgeFRABluets06:56:45  +  00:18:20=30,954 
87 NEDJanus HellemonsNLDHolland06:56:45  +  00:18:20=30,954 
88 LUXChristophe DidierLUXLuxembourg06:56:45  +  00:18:20=30,954 
89 FRAGaston GrimbertFRABluets06:56:45  +  00:18:20=30,954 
90 BELTheo PirmezBELBelgium06:59:38  +  00:21:13=30,741 
91 FRAPierre JaminetFRAFrance07:17:35  +  00:39:10=29,480 
92 GERFritz RulandDEUGermany07:25:00  +  00:46:35=28,989 
93 ESPEmiliano AlvarezESPSpain07:29:24  +  00:50:59=28,705 
94 FRAPaul MayeFRAFrance08:10:00  +  01:31:35=26,327 

Withdrawls: 2
 
Rider
Team
Reason
54  ESPAntonio PriorESPSpainDid not finish
96  FRACharles BouvetFRABluetsDid not finish

Todays birthdays.

1886  Jean Meziere
1887  Pierre Herbette
1887  Octave Lapize
1898  Felix Manthey
1920  René Biever
1920  Georges Ramoulux
1928  René Marigil
1940  Jean-Pierre Genet
1944  Giannino Bianco
1945  Eddy Cael
1950  Bert Pronk
1954  Marc Dierickx
1961  Chris Carmichael
1973  Levi Leipheimer